Location: Peebles
(55.6412°N, 3.1714°W)
Time: 18:44:55
(UTC+01:00)

ISS - Pass Details

Date: 28 September 2021
Orbit: 417 x 423 km, 51.6° (Epoch: 23 October)

Event Time Altitude Azimuth Distance (km) Brightness Sun altitude
Rises 19:57:13 0° 265° (W) 2,364 1.9 -9.5°
Reaches altitude 10° 19:59:23 10° 258° (WSW) 1,500 0.3 -9.8°
Maximum altitude 20:02:33 39° 188° (S) 644 -2.9 -10.3°
Enters shadow 20:05:02 15° 123° (ESE) 1,238 -2.0 -10.6°
